This demonstration page uses our WeatherBlox Daily Observations layout. Learn more.

40.92945, -100.16068

Hourly Observations for December 4, 2015

Temp ( °F °C ) Dew Point ( °F °C ) Humidity (%) Winds ( mph kmh ) Pressure ( in mb ) Visibility ( mi km ) Precip ( " mm )
12:15 am 00:15 Clear 25 -3.9 23 -5.2 91 91 Calm 30.42 1030 10 16.0934 N/A
12:35 am 00:35 Clear 24 -4.3 22 -5.8 89 89 Calm 30.42 1030 10 16.0934 N/A
12:55 am 00:55 Clear 24 -4.3 22 -5.8 89 89 SE 5 7 30.42 1030 10 16.0934 N/A
1:15 am 01:15 Clear 25 -3.9 23 -5.2 91 91 SE 3 6 30.42 1030 10 16.0934 N/A
1:35 am 01:35 Clear 24 -4.6 22 -5.7 92 92 SSE 3 6 30.42 1030 10 16.0934 N/A
1:55 am 01:55 Clear 26 -3.5 24 -4.6 92 92 SSE 6 9 30.42 1030 10 16.0934 N/A
2:15 am 02:15 Clear 25 -3.7 23 -5 91 91 Calm 30.42 1030 10 16.0934 N/A
2:35 am 02:35 Clear 25 -4.1 22 -5.5 90 90 Calm 30.42 1030 10 16.0934 N/A
2:55 am 02:55 Clear 27 -3 24 -4.4 90 90 SSE 6 9 30.42 1030 10 16.0934 N/A
3:15 am 03:15 Clear 29 -1.8 25 -3.8 86 86 SSE 6 9 30.39 1029 10 16.0934 N/A
3:35 am 03:35 Clear 29 -1.7 25 -4.1 84 84 S 8 13 30.36 1028 10 16.0934 N/A
3:55 am 03:55 Clear 31 -0.7 26 -3.4 82 82 SSE 6 9 30.36 1028 10 16.0934 N/A
4:15 am 04:15 Clear 30 -1 25 -4.1 80 80 SE 5 7 30.36 1028 10 16.0934 N/A
4:35 am 04:35 Clear 25 -4 21 -5.9 87 87 SE 5 7 30.39 1029 10 16.0934 N/A
4:55 am 04:55 Clear 25 -3.8 22 -5.6 87 87 SE 5 7 30.39 1029 10 16.0934 N/A
5:15 am 05:15 Clear 26 -3.2 23 -5 88 88 SE 5 7 30.36 1028 10 16.0934 N/A
5:35 am 05:35 Clear 27 -2.7 23 -4.9 85 85 ESE 6 9 30.36 1028 10 16.0934 N/A
5:55 am 05:55 Clear 27 -3 24 -4.7 88 88 ESE 6 9 30.36 1028 10 16.0934 0 0
6:15 am 06:15 Clear 26 -3.3 23 -5.1 88 88 ESE 7 11 30.36 1028 10 16.0934 N/A
6:35 am 06:35 Clear 28 -2.1 24 -4.4 84 84 ESE 6 9 30.36 1028 10 16.0934 N/A
6:55 am 06:55 Clear 29 -1.5 25 -3.8 85 85 SE 5 7 30.36 1028 10 16.0934 N/A
7:15 am 07:15 Clear 27 -2.6 24 -4.7 86 86 ESE 5 7 30.36 1028 10 16.0934 N/A
7:35 am 07:35 Clear 28 -2.4 25 -4.1 88 88 ESE 5 7 30.36 1028 10 16.0934 N/A
7:55 am 07:55 Sunny 30 -1.2 27 -2.9 88 88 SE 7 11 30.36 1028 10 16.0934 N/A
8:15 am 08:15 Sunny 31 -0.5 28 -2.2 88 88 SSE 7 11 30.33 1027 10 16.0934 N/A
8:35 am 08:35 Sunny 32 0.1 29 -1.5 89 89 SSE 7 11 30.33 1027 10 16.0934 N/A
8:55 am 08:55 Sunny 34 1 31 -0.7 89 89 S 8 13 30.33 1027 10 16.0934 N/A
9:15 am 09:15 Sunny 36 2 32 -0.1 86 86 S 10 17 30.33 1027 10 16.0934 N/A
9:35 am 09:35 Sunny 38 3.1 32 0.2 81 81 S 8 13 30.3 1026 10 16.0934 N/A
9:55 am 09:55 Sunny 39 3.8 33 0.3 78 78 S 13 20 30.3 1026 10 16.0934 N/A
10:15 am 10:15 Sunny 40 4.6 33 0.4 74 74 S 14 22 30.27 1025 10 16.0934 N/A
10:35 am 10:35 Sunny 42 5.8 33 0.7 70 70 S 17 28 30.24 1024 10 16.0934 N/A
10:55 am 10:55 Sunny 44 6.8 34 0.9 66 66 S 15 24 30.24 1024 10 16.0934 N/A
11:15 am 11:15 Sunny 46 7.6 33 0.8 62 62 S 17 28 30.24 1024 10 16.0934 N/A
11:35 am 11:35 Sunny 47 8.2 34 1.3 62 62 S 14 22 30.24 1024 10 16.0934 N/A
11:55 am 11:55 Sunny 47 8.6 34 1.3 60 60 S 20 31 30.18 1022 10 16.0934 N/A
12:15 pm 12:15 Sunny 48 8.8 35 1.6 61 61 S 21 33 30.18 1022 10 16.0934 N/A
12:35 pm 12:35 Sunny 48 9 35 1.8 61 61 S 17 28 30.15 1021 10 16.0934 N/A
12:55 pm 12:55 Sunny 49 9.5 35 1.8 59 59 S 20 31 30.15 1021 10 16.0934 N/A
1:15 pm 13:15 Sunny 50 10 36 2 58 58 SSE 15 24 30.15 1021 10 16.0934 N/A
1:35 pm 13:35 undefined 51 10.3 37 2.6 59 59 SSE 20 31 30.12 1020 10 16.0934 N/A
1:55 pm 13:55 Sunny 51 10.3 37 2.5 59 59 S 16 26 30.12 1020 10 16.0934 N/A
2:15 pm 14:15 Sunny 53 11.4 37 2.5 55 55 SSE 20 31 30.09 1019 10 16.0934 N/A
2:35 pm 14:35 Sunny 53 11.5 37 2.5 54 54 SSE 17 28 30.09 1019 10 16.0934 N/A
2:55 pm 14:55 Sunny 54 12 37 2.6 53 53 SSE 15 24 30.06 1018 10 16.0934 N/A
3:15 pm 15:15 Sunny 54 12.1 37 2.7 53 53 SSE 16 26 30.06 1018 10 16.0934 N/A
3:35 pm 15:35 Sunny 55 12.5 37 2.9 52 52 SSE 14 22 30.06 1018 10 16.0934 N/A
3:55 pm 15:55 Sunny 55 12.7 35 1.9 48 48 S 17 28 30.06 1018 10 16.0934 N/A
4:15 pm 16:15 Sunny 55 12.9 33 0.7 44 44 SSE 16 26 30.06 1018 10 16.0934 N/A
4:35 pm 16:35 Sunny 53 11.9 35 1.4 49 49 SSE 18 30 30.06 1018 10 16.0934 N/A
4:55 pm 16:55 Sunny 51 10.6 35 1.6 54 54 SSE 16 26 30.06 1018 10 16.0934 N/A
5:15 pm 17:15 Clear 50 10 35 1.7 57 57 SSE 16 26 30.09 1019 10 16.0934 N/A
5:35 pm 17:35 Clear 48 9 35 1.7 61 61 SSE 14 22 30.12 1020 10 16.0934 N/A
5:55 pm 17:55 Clear 48 8.9 35 1.7 61 61 SSE 13 20 30.12 1020 10 16.0934 N/A
6:15 pm 18:15 Clear 47 8.3 35 1.9 64 64 SSE 13 20 30.12 1020 10 16.0934 N/A
6:35 pm 18:35 Clear 46 7.6 35 1.7 67 67 SSE 13 20 30.12 1020 10 16.0934 N/A
6:55 pm 18:55 Clear 45 7 35 1.6 69 69 SSE 13 20 30.15 1021 10 16.0934 N/A
7:15 pm 19:15 Clear 45 7.2 36 2 70 70 SSE 12 19 30.15 1021 10 16.0934 N/A
7:35 pm 19:35 Clear 45 7.3 36 2 69 69 SE 13 20 30.18 1022 10 16.0934 N/A
7:55 pm 19:55 Clear 45 7 36 2 71 71 SSE 13 20 30.18 1022 10 16.0934 N/A
8:15 pm 20:15 Clear 44 6.8 35 1.9 71 71 SE 10 17 30.18 1022 10 16.0934 N/A
8:35 pm 20:35 Clear 44 6.6 36 2 73 73 SSE 13 20 30.18 1022 10 16.0934 N/A
8:55 pm 20:55 Clear 44 6.5 36 2 73 73 SSE 13 20 30.18 1022 10 16.0934 N/A
9:15 pm 21:15 Clear 44 6.5 36 2.2 74 74 SSE 15 24 30.18 1022 10 16.0934 N/A
9:35 pm 21:35 Clear 43 6.2 36 2 75 75 SSE 14 22 30.18 1022 10 16.0934 N/A
9:55 pm 21:55 Clear 43 6.1 36 2 75 75 SSE 15 24 30.18 1022 10 16.0934 N/A
10:15 pm 22:15 Clear 43 6 35 1.9 75 75 SSE 17 28 30.18 1022 10 16.0934 N/A
10:35 pm 22:35 Clear 43 5.9 35 1.7 75 75 SSE 16 26 30.18 1022 10 16.0934 N/A
10:55 pm 22:55 Clear 42 5.5 35 1.6 76 76 SSE 15 24 30.18 1022 10 16.0934 N/A
11:15 pm 23:15 Clear 42 5.3 35 1.5 77 77 SSE 15 24 30.18 1022 10 16.0934 N/A
11:35 pm 23:35 Clear 41 5.2 35 1.5 77 77 SSE 14 22 30.18 1022 10 16.0934 N/A
11:55 pm 23:55 Clear 41 4.8 35 1.4 79 79 SSE 12 19 30.18 1022 10 16.0934 N/A

Powered by AerisWeather